DW5678 Kavala GR current weather conditions

sailwx.info

Wind from 054

Air temperature 25.0° C
Dewpoint 19.1° C

Last reported at 2017-Jun-28 02:45 UTC.
Time now 2017-Jun-28 03:52 UTC

Location: N 40°56' E 024°24'.
View on Google Maps.

See reports from other nearby stations

  
Tides and Currents Weather Stations Pressure Air Temp Water Temp Dewpoint Dewpoint Depression Visibility Wind Speed Wind Dir Waves Ship Positions
date/time (UTC)wind fromknots sea level pressurealtimeterstation pressurevisibilityair tempwater tempwave heightnotes
2017-Jun-28 02:45 054 25.0
2017-Jun-28 02:30 054 25.0
2017-Jun-28 02:15 054 25.0
2017-Jun-28 02:00 054 25.0
2017-Jun-28 01:45 054 25.6
2017-Jun-28 01:15 054 25.6
2017-Jun-28 01:00 054 25.6
2017-Jun-28 00:45 054 25.6
2017-Jun-28 00:30 054 25.6
2017-Jun-28 00:15 054 25.6
2017-Jun-28 00:00 054 25.6
2017-Jun-27 23:45 054 25.6
2017-Jun-27 22:45 054 26.1
2017-Jun-27 22:30 054 26.1
2017-Jun-27 22:15 054 26.7
2017-Jun-27 21:30 054 26.7
2017-Jun-27 21:15 054 26.7
2017-Jun-27 21:00 054 26.7
2017-Jun-27 20:15 054 27.2
2017-Jun-27 20:00 054 27.2
2017-Jun-27 19:30 054 27.2
2017-Jun-27 19:15 054 27.2
2017-Jun-27 19:00 054 27.2
2017-Jun-27 18:45 054 27.2
2017-Jun-27 18:15 046 28.3
2017-Jun-27 18:00 213 28.9
2017-Jun-27 17:30 213 28.9
2017-Jun-27 17:00 213 28.9
2017-Jun-27 16:45 213 28.9
2017-Jun-27 16:30 213 28.9
2017-Jun-27 15:30 215 28.9
2017-Jun-27 15:15 206 0 gusting 5 29.4
2017-Jun-27 15:00 242 1 gusting 4 29.4
2017-Jun-27 14:45 131 1 gusting 4 29.4
2017-Jun-27 14:30 207 1 gusting 4 28.9
2017-Jun-27 14:15 189 0 gusting 4 28.3
2017-Jun-27 14:00 127 0 gusting 5 28.9
2017-Jun-27 13:45 192 1 gusting 4 28.3
2017-Jun-27 13:15 149 1 gusting 5 27.8
2017-Jun-27 12:30 249 3 gusting 6 27.8
2017-Jun-27 12:15 165 1 gusting 6 28.3
2017-Jun-27 12:00 169 1 gusting 6 28.3
2017-Jun-27 11:30 243 2 gusting 6 27.8
2017-Jun-27 11:00 196 1 gusting 6 27.8
2017-Jun-27 10:45 202 1 gusting 6 27.8
2017-Jun-27 10:15 151 0 gusting 5 28.9
2017-Jun-27 09:45 199 1 gusting 5 28.9
2017-Jun-27 09:15 217 1 gusting 5 27.8
2017-Jun-27 08:45 137 1 gusting 5 27.8
2017-Jun-27 08:15 142 1 gusting 4 28.3
2017-Jun-27 07:45 137 0 gusting 5 28.3
2017-Jun-27 07:30 202 0 gusting 6 29.4
2017-Jun-27 07:00 183 0 gusting 6 28.3
2017-Jun-27 06:30 193 1 gusting 5 27.2
2017-Jun-27 05:45 205 0 gusting 2 26.7
2017-Jun-27 05:30 221 0 gusting 4 25.6
2017-Jun-27 05:15 254 25.6
2017-Jun-27 05:00 254 25.6
2017-Jun-27 03:15 011 24.4
2017-Jun-27 03:00 011 24.4
2017-Jun-27 02:45 011 24.4
2017-Jun-27 02:30 013 25.0
2017-Jun-27 02:00 042 24.4
2017-Jun-27 01:45 303 2 gusting 6 23.9
2017-Jun-27 01:30 259 24.4
2017-Jun-27 01:15 273 0 gusting 2 25.0
2017-Jun-27 01:00 207 0 gusting 1 25.6
2017-Jun-27 00:45 205 25.6
2017-Jun-27 00:30 215 26.1
2017-Jun-27 00:15 214 26.7
2017-Jun-27 00:00 142 0 gusting 7 26.7
2017-Jun-26 23:00 309 3 gusting 12 25.0
2017-Jun-26 22:45 261 2 gusting 10 24.4
2017-Jun-26 22:30 356 2 gusting 10 25.0
2017-Jun-26 22:00 352 5 gusting 7 26.7
2017-Jun-26 21:45 048 2 gusting 6 27.2
2017-Jun-26 21:15 050 0 gusting 1 26.7
2017-Jun-26 20:45 261 2 gusting 7 26.1
2017-Jun-26 20:30 294 2 gusting 10 26.1
2017-Jun-26 20:00 235 27.2
2017-Jun-26 19:30 269 0 gusting 1 27.2
2017-Jun-26 19:15 148 0 gusting 2 27.8
2017-Jun-26 18:45 324 27.2
2017-Jun-26 18:30 266 0 gusting 2 27.2
2017-Jun-26 18:00 265 26.7
2017-Jun-26 17:45 265 27.2
2017-Jun-26 17:30 265 27.2
2017-Jun-26 17:15 265 27.8
2017-Jun-26 16:30 217 27.8
2017-Jun-26 16:15 217 0 gusting 2 27.8
2017-Jun-26 16:00 233 27.2
2017-Jun-26 15:45 241 27.2
2017-Jun-26 15:30 154 0 gusting 6 27.2
2017-Jun-26 15:15 229 2 gusting 6 27.8
2017-Jun-26 14:30 238 1 gusting 5 28.3
2017-Jun-26 13:45 241 1 gusting 5 28.9
2017-Jun-26 13:30 203 2 gusting 5 27.8
2017-Jun-26 13:15 201 0 gusting 4 27.8
2017-Jun-26 12:45 197 1 gusting 5 27.2
2017-Jun-26 12:30 140 1 gusting 5 28.3
2017-Jun-26 12:15 216 1 gusting 6 27.8
2017-Jun-26 11:45 227 4 gusting 6 27.8
2017-Jun-26 11:15 220 4 gusting 6 28.3
2017-Jun-26 11:00 162 1 gusting 6 28.9
2017-Jun-26 10:45 145 1 gusting 6 28.3
2017-Jun-26 10:30 133 1 gusting 4 28.3
2017-Jun-26 10:15 182 0 gusting 4 28.3
2017-Jun-26 10:00 161 1 gusting 5 27.2
2017-Jun-26 08:45 116 2 gusting 6 27.8
2017-Jun-26 08:30 141 0 gusting 6 28.3
2017-Jun-26 08:00 145 0 gusting 6 27.8
2017-Jun-26 07:30 346 0 gusting 5 27.2
2017-Jun-26 07:15 117 1 gusting 4 27.8
2017-Jun-26 07:00 101 1 gusting 5 27.2
2017-Jun-26 06:15 155 0 gusting 4 27.8
2017-Jun-26 06:00 143 1 gusting 4 27.2
2017-Jun-26 05:30 126 0 gusting 2 27.2
2017-Jun-26 04:45 042 1 gusting 5 26.1
2017-Jun-26 04:30 055 2 gusting 6 25.6
2017-Jun-26 04:15 028 1 gusting 4 25.6
2017-Jun-26 04:00 036 1 gusting 4 25.6
2017-Jun-26 03:45 022 0 gusting 2 25.6
2017-Jun-26 03:30 017 25.6
2017-Jun-26 03:15 017 25.0
2017-Jun-26 03:00 019 25.0